Home > Weather > Alice Springs > Past weeks

Flag for Australia Weather for the Past 2 Weeks in Alice Springs, Northern Territory, Australia

Now
81 °F

Clear.


Feels Like: 80 °F
Forecast: 68 / 92 °F
Wind: 7 mph from Southeast

Location: Alice Springs Aerodrome

Current Time: Feb 7, 2016 at 11:12:26 PM

Latest Report: Feb 7, 2016 at 10:30 PM


Visibility: N/A

Pressure: 30.01 "Hg (28.09 "Hg at 581m altitude)

Humidity: 32%

Dew point: 48 °F

Location of Alice SpringsLocation

Historic Weather in Alice Springs — Graph

°F

Alice Springs Temperature Yesterday

Maximum temperature yesterday: 95 °F (at 3:30 PM)
Minimum temperature yesterday: 64 °F (at 12:30 AM)
Average temperature yesterday: 79 °F

High & Low Weather Summary for the Past Weeks

 TemperatureHumidityPressure
High104 °F (Jan 27, 2:30 PM)88% (Jan 24, 6:00 AM)30.01 "Hg (Jan 24, 6:00 AM)
Low59 °F (Feb 5, 5:30 AM)9% (Feb 5, 3:30 PM)29.59 "Hg (Feb 1, 5:00 PM)
Average83 °F38%29.86 "Hg
* Reported Jan 23 9:30 PM — Feb 7 9:30 PM, Alice Springs, Weather by CustomWeather, © 2016

Note: Actual official high and low records may vary slightly from our data, if they occured in-between our weather recording intervals... More about our weather records

Advertising

Alice Springs Weather History for the Previous 24 Hours

 ConditionsComfort  
Time TempWeatherWind HumidityBarometerVisibility
9:30 PM
Sun, Feb 7
86 °FClear.9 mph27%29.98 "HgN/A
9:00 PM86 °FClear.9 mph27%29.98 "HgN/A
8:30 PM86 °FClear.9 mph27%29.95 "HgN/A
8:00 PM88 °FClear.13 mph24%29.95 "HgN/A
7:30 PM90 °FPassing clouds.13 mph21%29.92 "HgN/A
7:00 PM91 °FPassing clouds.13 mph20%29.92 "HgN/A
6:30 PM91 °FPartly sunny.16 mph18%29.92 "HgN/A
6:00 PM93 °FScattered clouds.16 mph17%29.89 "HgN/A
5:30 PM93 °FPartly sunny.20 mph17%29.89 "HgN/A
5:20 PM95 °FPartly sunny.17 mph16%29.89 "HgN/A
5:00 PM93 °FSunny.15 mph19%29.89 "Hg10 mi
4:30 PM95 °FSunny.17 mph16%29.89 "Hg10 mi
3:30 PM93 °FSunny.17 mph19%29.89 "Hg10 mi
2:30 PM95 °FSunny.16 mph19%29.92 "Hg10 mi
2:00 PM95 °FSunny.22 mph19%29.92 "Hg10 mi
1:30 PM93 °FSunny.16 mph19%29.92 "Hg10 mi
1:00 PM93 °FScattered clouds.13 mph17%29.92 "HgN/A
12:30 PM91 °FPassing clouds.14 mph23%29.95 "HgN/A
11:30 AM91 °FBroken clouds.15 mph28%29.95 "HgN/A
11:00 AM90 °FPassing clouds.15 mph27%29.95 "HgN/A
10:30 AM88 °FPassing clouds.13 mph31%29.95 "HgN/A
9:30 AM86 °FSunny.10 mph33%29.98 "Hg10 mi
9:00 AM86 °FSunny.9 mph33%29.95 "Hg10 mi
8:30 AM84 °FSunny.12 mph33%29.95 "Hg10 mi
8:00 AM81 °FSunny.6 mph39%29.95 "Hg10 mi
7:30 AM77 °FPassing clouds.6 mph39%29.95 "HgN/A
6:30 AM66 °FScattered clouds.8 mph52%29.92 "HgN/A
5:30 AM68 °FClear.6 mph46%29.92 "HgN/A
5:00 AM68 °FClear.6 mph46%29.89 "HgN/A
4:30 AM70 °FClear.6 mph43%29.89 "HgN/A
4:00 AM68 °FClear.No wind49%29.89 "HgN/A
3:30 AM70 °FClear.No wind43%29.89 "HgN/A
3:00 AM72 °FClear.No wind38%29.89 "HgN/A
2:30 AM72 °FClear.3 mph38%29.89 "HgN/A
2:00 AM73 °FClear.5 mph36%29.89 "HgN/A
1:30 AM72 °FClear.6 mph38%29.89 "HgN/A
12:30 AM73 °FClear.5 mph36%29.89 "HgN/A
12:00 AM73 °FClear.5 mph38%29.89 "HgN/A
11:30 PM
Sat, Feb 6
75 °FClear.6 mph41%29.89 "HgN/A
11:00 PM77 °FClear.6 mph36%29.89 "HgN/A
Weather by CustomWeather, © 2016

See weather overviewHow to use our weather pages